Flag Weather past 2 weeks in Bolzano, Italy

Now
39 °F

Clear.


Feels Like: 39 °F
Forecast: 35 / 58 °F
Wind: 2 mph from North

Location: Bolzano

Current Time: Nov 25, 2014 at 12:12:23 AM

Latest Report: Nov 24, 2014 at 10:50 PM


Visibility: 10 mi

Pressure: 30.21 "Hg

Humidity: 100%

Dew point: 39 °F

Location of BolzanoLocation

Historic Weather in Bolzano — Graph

°F

Bolzano temperature yesterday

Maximum temperature yesterday: 54 °F (at 1:50 PM)
Minimum temperature yesterday: 34 °F (at 6:50 AM)
Average temperature yesterday: 44 °F

Past Weeks' High & Low Weather Summary

 TemperatureHumidityPressure
High64 °F (Nov 13, 2:50 PM)100% (Nov 9, 10:50 PM)30.39 "Hg (Nov 9, 10:50 PM)
Low30 °F (Nov 23, 7:50 AM)55% (Nov 19, 2:50 PM)29.62 "Hg (Nov 15, 8:50 PM)
Average49 °F90%29.99 "Hg
* Reported Nov 9 10:50 PM — Nov 24 10:50 PM, Bolzano, Weather by CustomWeather, © 2014

Note: Actual official high and low records may vary slightly from our data, if they occured in-between our weather recording intervals... More about our weather records

Advertising

Bolzano weather history for previous 24 hours

 ConditionsComfort  
Time TempWeatherWind HumidityBarometerVisibility
10:50 PM
Nov 24
39 °FClear.2 mph100%30.21 "Hg10 mi
9:50 PM41 °FClear.3 mph93%30.21 "Hg10 mi
8:50 PM41 °FClear.No wind93%30.21 "Hg10 mi
7:50 PM45 °FClear.No wind87%30.21 "Hg10 mi
6:50 PM45 °FPassing clouds.2 mph87%30.21 "HgN/A
5:50 PM46 °FPassing clouds.No wind87%30.21 "HgN/A
4:50 PM48 °FPassing clouds.1 mph82%30.21 "HgN/A
3:50 PM52 °FPassing clouds.No wind72%30.18 "HgN/A
2:50 PM54 °FScattered clouds.2 mph67%30.21 "HgN/A
1:50 PM54 °FScattered clouds.2 mph63%30.21 "HgN/A
12:50 PM50 °FSunny.1 mph71%30.24 "Hg10 mi
11:50 AM50 °FSunny.1 mph71%30.27 "Hg10 mi
10:50 AM46 °FSunny.2 mph82%30.30 "Hg10 mi
9:50 AM39 °FScattered clouds.1 mph100%30.30 "HgN/A
8:50 AM36 °FScattered clouds.1 mph100%30.30 "HgN/A
7:50 AM36 °FSunny.3 mph100%30.33 "Hg10 mi
6:50 AM34 °FClear.2 mph100%30.30 "Hg10 mi
Weather by CustomWeather, © 2014

See weather overviewHow to use our weather pages